Weather History for Poteau, OK

Change the Weather History Date:

Saturday, March 9, 2013

  Actual Average (KFSM) Record (KFSM)
Temperature  
Mean Temperature 62 °F 51 °F  
Max Temperature 68 °F 63 °F 91 °F (1911)
Min Temperature 55 °F 39 °F 10 °F (1996)
Degree Days  
Heating Degree Days 4 14  
Month to date heating degree days 139  
Since 1 July heating degree days 2812  
Cooling Degree Days 0 0  
Month to date cooling degree days 0  
Year to date cooling degree days 1  
Growing Degree Days 12 (Base 50)    
Moisture  
Dew Point 52 °F    
Average Humidity 69    
Maximum Humidity 100    
Minimum Humidity 42    
Precipitation  
Precipitation 0.01 in 0.11 in 1.76 in (1964)
Month to date precipitation 1.04  
Year to date precipitation 6.61  
Sea Level Pressure  
Sea Level Pressure 29.88 in    
Wind  
Wind Speed 7 mph (SSE)    
Max Wind Speed 20 mph    
Max Gust Speed 32 mph    
Visibility 10 miles    
Events Rain , Thunderstorm    
T = Trace of Precipitation, MM = Missing Value Source: NWS Daily Summary

Daily Weather History Graph

Daily Weather History Graph

Search for Another Location

Airport:

Trip Planner

Search our weather history database for the weather conditions in past years. The results will help you decide how hot, cold, wet, or windy it might be!

Date:

Astronomy

Mar. 09, 2013 Rise Set
Actual Time 6:36 AM CST 6:21 PM CST
Civil Twilight 6:11 AM CST 6:46 PM CST
Nautical Twilight 5:42 AM CST 7:15 PM CST
Astronomical Twilight 5:13 AM CST 7:45 PM CST
Moon 4:57 AM CST (3/9) 4:27 PM CST (3/9)
Length of Visible Light 12h 34m
Length of Day
11h 44m
Waning Crescent, 5% of the Moon is Illuminated
Mar 9
Waning Crescent
Mar 11
New
Mar 19
First Quarter
Mar 27
Full
Apr 2
Last Quarter

Hourly Weather History & Observations

Time (CST) Temp. Dew Point Humidity Pressure Visibility Wind Dir Wind Speed Gust Speed Precip Events Conditions
12:15 AM 60.8 °F 39.2 °F 45% 30.05 in 10.0 mi Calm Calm - N/A   Overcast
12:35 AM 60.8 °F 37.4 °F 42% 30.06 in 10.0 mi Calm Calm - N/A   Overcast
12:55 AM 60.8 °F 39.2 °F 45% 30.05 in 10.0 mi East 4.6 mph - N/A   Overcast
1:15 AM 60.8 °F 39.2 °F 45% 30.05 in 10.0 mi Calm Calm - N/A   Overcast
1:35 AM 59.0 °F 39.2 °F 48% 30.04 in 10.0 mi Calm Calm - N/A   Overcast
1:55 AM 59.0 °F 39.2 °F 48% 30.03 in 10.0 mi Calm Calm - N/A   Overcast
2:15 AM 59.0 °F 42.8 °F 55% 30.02 in 10.0 mi Calm Calm - N/A   Overcast
2:35 AM 57.2 °F 41.0 °F 55% 30.01 in 10.0 mi Calm Calm - N/A   Overcast
2:55 AM 59.0 °F 39.2 °F 48% 29.99 in 10.0 mi SE 4.6 mph - N/A   Mostly Cloudy
3:15 AM 59.0 °F 39.2 °F 48% 29.98 in 10.0 mi SE 3.5 mph - N/A   Scattered Clouds
3:35 AM 59.0 °F 41.0 °F 51% 29.98 in 10.0 mi SSE 4.6 mph - N/A   Scattered Clouds
3:55 AM 59.0 °F 42.8 °F 55% 29.98 in 10.0 mi Calm Calm - N/A   Scattered Clouds
4:15 AM 59.0 °F 42.8 °F 55% 29.98 in 10.0 mi South 3.5 mph - N/A   Scattered Clouds
4:35 AM 59.0 °F 42.8 °F 55% 29.97 in 10.0 mi SSE 4.6 mph - N/A   Clear
4:55 AM 59.0 °F 44.6 °F 59% 29.98 in 10.0 mi South 4.6 mph - N/A   Clear
5:15 AM 59.0 °F 44.6 °F 59% 29.97 in 10.0 mi South 3.5 mph - N/A   Clear
5:35 AM 55.4 °F 44.6 °F 67% 29.97 in 10.0 mi South 6.9 mph - N/A   Clear
5:55 AM 59.0 °F 46.4 °F 63% 29.97 in 10.0 mi South 9.2 mph - N/A   Clear
6:15 AM 59.0 °F 44.6 °F 59% 29.97 in 10.0 mi SSE 8.1 mph - N/A   Clear
6:35 AM 59.0 °F 44.6 °F 59% 29.97 in 10.0 mi SSE 10.4 mph - N/A   Clear
6:55 AM 59.0 °F 44.6 °F 59% 29.96 in 10.0 mi South 6.9 mph - N/A   Clear
7:15 AM 59.0 °F 46.4 °F 63% 29.96 in 10.0 mi SSE 10.4 mph - N/A   Clear
7:35 AM 59.0 °F 46.4 °F 63% 29.95 in 10.0 mi SSE 11.5 mph 16.1 mph N/A   Clear
7:55 AM 60.8 °F 50.0 °F 68% 29.94 in 10.0 mi South 12.7 mph 20.7 mph N/A   Clear
8:15 AM 62.6 °F 51.8 °F 68% 29.96 in 10.0 mi South 10.4 mph 20.7 mph N/A   Clear
8:35 AM 62.6 °F 51.8 °F 68% 29.97 in 10.0 mi SSW 8.1 mph 17.3 mph N/A   Clear
8:55 AM 62.6 °F 51.8 °F 68% 29.96 in 10.0 mi SSW 13.8 mph 26.5 mph N/A   Clear
9:15 AM 62.6 °F 51.8 °F 68% 29.95 in 10.0 mi South 19.6 mph 25.3 mph N/A   Clear
9:35 AM 64.4 °F 51.8 °F 64% 29.95 in 10.0 mi SSW 17.3 mph 25.3 mph N/A   Clear
9:55 AM 62.6 °F 51.8 °F 68% 29.95 in 10.0 mi South 17.3 mph - N/A   Scattered Clouds
10:15 AM 62.6 °F 53.6 °F 72% 29.94 in 10.0 mi South 13.8 mph - N/A   Mostly Cloudy
10:35 AM 62.6 °F 53.6 °F 72% 29.94 in 10.0 mi South 10.4 mph 19.6 mph N/A   Overcast
10:55 AM 64.4 °F 53.6 °F 68% 29.93 in 10.0 mi SSE 9.2 mph 16.1 mph N/A   Overcast
11:15 AM 66.2 °F 55.4 °F 68% 29.92 in 10.0 mi SSE 11.5 mph - N/A   Overcast
11:35 AM 66.2 °F 55.4 °F 68% 29.91 in 10.0 mi South 12.7 mph 18.4 mph N/A   Overcast
11:55 AM 68.0 °F 55.4 °F 64% 29.90 in 10.0 mi South 15.0 mph 19.6 mph N/A   Overcast
12:15 PM 68.0 °F 55.4 °F 64% 29.88 in 10.0 mi South 16.1 mph - N/A   Mostly Cloudy
12:35 PM 66.2 °F 55.4 °F 68% 29.89 in 10.0 mi SSE 10.4 mph - N/A   Overcast
12:55 PM 64.4 °F 55.4 °F 73% 29.87 in 10.0 mi SSE 4.6 mph 9.2 mph N/A   Overcast
1:15 PM 64.4 °F 55.4 °F 73% 29.85 in 10.0 mi SSE 4.6 mph - N/A   Overcast
1:35 PM 66.2 °F 57.2 °F 73% 29.85 in 10.0 mi South 8.1 mph - N/A   Overcast
1:55 PM 66.2 °F 57.2 °F 73% 29.83 in 10.0 mi South 15.0 mph 19.6 mph N/A   Overcast
2:15 PM 64.4 °F 57.2 °F 77% 29.82 in 10.0 mi South 17.3 mph 25.3 mph N/A   Overcast
2:35 PM 64.4 °F 55.4 °F 73% 29.82 in 10.0 mi SSE 12.7 mph 20.7 mph N/A   Overcast
2:55 PM 64.4 °F 55.4 °F 73% 29.81 in 10.0 mi SSE 9.2 mph - N/A   Overcast
3:15 PM 64.4 °F 57.2 °F 77% 29.80 in 10.0 mi SSE 4.6 mph - N/A   Overcast
3:35 PM 66.2 °F 59.0 °F 78% 29.79 in 10.0 mi South 10.4 mph - N/A   Overcast
3:55 PM 66.2 °F 59.0 °F 78% 29.78 in 10.0 mi SSE 10.4 mph 19.6 mph N/A   Overcast
4:15 PM 66.2 °F 59.0 °F 78% 29.77 in 10.0 mi SSE 11.5 mph 19.6 mph N/A   Overcast
4:35 PM 66.2 °F 59.0 °F 78% 29.76 in 10.0 mi SSE 11.5 mph 17.3 mph N/A   Overcast
4:55 PM 66.2 °F 59.0 °F 78% 29.75 in 10.0 mi SSE 11.5 mph - N/A   Overcast
5:15 PM 66.2 °F 59.0 °F 78% 29.74 in 10.0 mi SSE 15.0 mph 21.9 mph N/A Rain Light Rain
5:35 PM 66.2 °F 59.0 °F 78% 29.73 in 10.0 mi SSE 11.5 mph 21.9 mph N/A Rain Light Rain
5:55 PM 66.2 °F 59.0 °F 78% 29.72 in 10.0 mi SSE 9.2 mph 18.4 mph N/A Thunderstorm Overcast
6:15 PM 66.2 °F 59.0 °F 78% 29.73 in 10.0 mi SSE 9.2 mph - N/A Thunderstorm Thunderstorm
6:35 PM 66.2 °F 59.0 °F 78% 29.74 in 10.0 mi SE 5.8 mph - N/A Thunderstorm Overcast
6:55 PM 68.0 °F 59.0 °F 73% 29.74 in 10.0 mi SSE 5.8 mph 19.6 mph N/A Thunderstorm Overcast
7:15 PM 68.0 °F 60.8 °F 78% 29.74 in 10.0 mi SSE 15.0 mph 20.7 mph N/A Thunderstorm Overcast
7:35 PM 66.2 °F 59.0 °F 78% 29.73 in 10.0 mi SSE 12.7 mph 20.7 mph N/A   Mostly Cloudy
7:55 PM 66.2 °F 59.0 °F 78% 29.72 in 10.0 mi SSE 11.5 mph 16.1 mph N/A   Mostly Cloudy
8:15 PM 66.2 °F 59.0 °F 78% 29.72 in 10.0 mi SSE 10.4 mph 19.6 mph N/A   Overcast
8:35 PM 66.2 °F 59.0 °F 78% 29.71 in 10.0 mi SSE 12.7 mph 23.0 mph N/A Thunderstorm Thunderstorm
8:55 PM 68.0 °F 59.0 °F 73% 29.72 in 10.0 mi SSE 19.6 mph 28.8 mph N/A   Overcast
9:15 PM 68.0 °F 59.0 °F 73% 29.73 in 10.0 mi SSE 16.1 mph 27.6 mph N/A Thunderstorm Overcast
9:35 PM 64.4 °F 59.0 °F 83% 29.74 in 10.0 mi SSE 16.1 mph 23.0 mph N/A Rain , Thunderstorm Light Thunderstorms and Rain
9:55 PM 62.6 °F 59.0 °F 88% 29.79 in 7.0 mi WSW 17.3 mph 28.8 mph 0.01 in Rain , Thunderstorm Thunderstorms and Rain
10:15 PM 59.0 °F 57.2 °F 94% 29.78 in 4.0 mi South 15.0 mph 32.2 mph N/A Rain , Thunderstorm Heavy Thunderstorms and Rain
10:35 PM 59.0 °F 57.2 °F 94% 29.79 in 10.0 mi SSW 10.4 mph - N/A Rain , Thunderstorm Rain
10:55 PM 59.0 °F 57.2 °F 94% 29.79 in 5.0 mi SSW 6.9 mph - N/A Rain , Thunderstorm Rain
11:15 PM 57.2 °F 57.2 °F 100% 29.77 in 10.0 mi Calm Calm - N/A Rain , Thunderstorm Thunderstorms and Rain
11:55 PM 57.2 °F 57.2 °F 100% 29.79 in 7.0 mi SW 6.9 mph - N/A Rain , Thunderstorm Rain